PBO Station Position Time Series. Reference Frame : NAM14
Format Version,1.1.1
4-character ID,P744
Station name,ImperialVCCS2007
Begin Date, 2007-05-25
End Date, 2023-06-26
Release Date, 2023-06-27
Reference position, 32.8293821522 North Latitude, -115.5084054232 East Longitude, -52.76636 meters elevation,
Date, North (mm), East (mm), Vertical (mm), North Std. Deviation (mm), East Std. Deviation (mm),              Vertical Std. Deviation (mm), Quality,
2007-05-25,0.00, 0.00, 0.00, 1.90, 1.65, 7.38, repro,
2007-05-26,0.58, -0.23, 10.02, 1.90, 1.64, 7.39, repro,
2007-05-27,0.76, -0.37, 12.72, 1.91, 1.64, 7.36, repro,
2007-05-28,0.14, 1.04, 5.69, 1.91, 1.64, 7.38, repro,
2007-05-29,2.67, -0.14, 4.57, 1.87, 1.60, 7.23, repro,
2007-05-30,1.31, 0.95, 2.81, 1.92, 1.61, 7.31, repro,
2007-05-31,1.56, 1.55, 4.76, 1.91, 1.65, 7.43, repro,
2007-06-01,0.20, -0.55, 10.78, 1.89, 1.60, 7.26, repro,
2007-06-02,-0.03, -0.22, 10.01, 1.86, 1.60, 7.22, repro,
2007-06-03,2.18, 1.12, 6.90, 1.90, 1.67, 7.40, repro,
2007-06-04,1.83, 2.18, 3.79, 1.86, 1.60, 7.23, repro,
2007-06-05,2.32, 1.29, 0.37, 1.90, 1.62, 7.34, repro,
2007-06-06,0.16, 1.02, 13.38, 1.87, 1.63, 7.38, repro,
2007-06-07,1.05, 0.50, 13.61, 1.86, 1.60, 7.27, repro,
2007-06-08,1.25, 0.69, 10.69, 1.85, 1.60, 7.25, repro,
2007-06-09,1.12, 1.19, 1.57, 1.88, 1.64, 7.32, repro,
2007-06-10,1.60, 1.80, 1.93, 1.87, 1.61, 7.30, repro,
2007-06-11,2.81, 2.36, 10.92, 1.90, 1.71, 7.45, repro,
2007-06-12,1.10, 0.79, 0.35, 1.91, 1.71, 7.46, repro,
2007-06-13,1.16, -0.22, 4.38, 1.90, 1.66, 7.46, repro,
2007-06-14,1.78, 1.94, -1.70, 1.94, 1.72, 7.54, repro,
2007-06-15,1.98, 1.53, 7.99, 1.86, 1.61, 7.24, repro,
2007-06-16,1.83, 1.43, 3.79, 1.85, 1.60, 7.21, repro,
2007-06-17,1.05, 2.70, 2.78, 1.84, 1.60, 7.22, repro,
2007-06-18,1.64, 1.66, 9.30, 1.85, 1.60, 7.23, repro,
2007-06-19,0.92, 1.01, 4.51, 1.86, 1.62, 7.28, repro,
2007-06-20,0.07, 1.83, 3.70, 1.86, 1.61, 7.25, repro,
2007-06-21,1.23, 2.03, 5.43, 1.85, 1.60, 7.20, repro,
2007-06-22,1.39, 2.77, -2.08, 1.85, 1.60, 7.24, repro,
2007-06-23,2.45, 2.28, -1.81, 1.87, 1.66, 7.39, repro,
2007-06-24,2.06, 1.74, 6.79, 1.90, 1.72, 7.60, repro,
2007-06-25,1.29, 2.21, 2.47, 1.92, 1.74, 7.57, repro,
2007-06-26,1.23, 1.66, -4.30, 1.86, 1.61, 7.27, repro,
2007-06-27,2.03, 0.71, -3.15, 1.88, 1.67, 7.34, repro,
2007-06-28,1.86, 1.88, -6.18, 1.88, 1.67, 7.36, repro,
2007-06-29,0.85, 1.35, 9.64, 1.85, 1.61, 7.29, repro,
2007-06-30,1.51, 1.66, 1.67, 1.90, 1.72, 7.50, repro,
2007-07-01,1.11, 3.28, 9.90, 1.87, 1.62, 7.33, repro,
2007-07-02,1.57, 2.69, 3.63, 1.85, 1.62, 7.31, repro,
2007-07-03,2.06, 2.47, -4.47, 1.92, 1.64, 7.54, repro,
2007-07-04,1.79, 0.53, -0.13, 1.87, 1.62, 7.34, repro,
2007-07-05,2.07, 0.98, 1.49, 1.86, 1.62, 7.32, repro,
2007-07-06,2.95, 1.73, 1.74, 1.90, 1.69, 7.45, repro,
2007-07-07,0.46, 1.00, 9.61, 1.87, 1.64, 7.40, repro,
2007-07-08,2.31, 0.72, 5.39, 1.86, 1.64, 7.34, repro,
2007-07-09,1.57, 1.77, 6.62, 1.87, 1.64, 7.41, repro,
2007-07-10,1.84, 1.90, 1.72, 1.86, 1.62, 7.30, repro,
2007-07-11,1.99, 3.33, 1.15, 1.86, 1.63, 7.29, repro,
2007-07-12,0.91, 2.39, 2.43, 1.89, 1.69, 7.43, repro,
2007-07-13,1.85, 3.42, 5.38, 1.91, 1.77, 7.54, repro,
2007-07-14,1.12, 0.32, -0.80, 1.92, 1.77, 7.64, repro,
2007-07-15,1.43, 1.76, 5.66, 1.90, 1.70, 7.44, repro,
2007-07-16,1.06, 3.30, 5.84, 1.89, 1.69, 7.35, repro,
2007-07-17,0.91, 0.35, 12.71, 1.90, 1.70, 7.45, repro,
2007-07-18,1.61, 2.06, 5.79, 1.86, 1.62, 7.31, repro,
2007-07-19,1.70, 4.04, 11.91, 1.87, 1.66, 7.42, repro,
2007-07-20,2.55, 2.07, 9.34, 1.90, 1.73, 7.55, repro,
2007-07-21,1.03, 2.57, 8.96, 1.90, 1.70, 7.46, repro,
2007-07-22,1.65, 3.56, 8.13, 1.90, 1.70, 7.46, repro,
2007-07-23,1.98, 2.69, -2.15, 1.89, 1.70, 7.44, repro,
2007-07-24,1.47, 2.44, 4.19, 1.91, 1.73, 7.50, repro,
2007-07-25,2.86, 2.18, 10.53, 1.92, 1.73, 7.55, repro,
2007-07-26,0.00, 3.94, 2.22, 1.87, 1.63, 7.36, repro,
2007-07-27,-1.29, 1.59, 4.46, 1.91, 1.72, 7.53, repro,
2007-07-28,2.85, 1.19, -0.59, 1.91, 1.72, 7.49, repro,
2007-07-29,0.47, 3.22, 7.41, 1.90, 1.72, 7.47, repro,
2007-07-30,0.31, 1.18, 7.06, 1.88, 1.64, 7.39, repro,
2007-07-31,2.32, 1.72, 1.38, 1.87, 1.65, 7.42, repro,
2007-08-01,1.82, 3.07, 3.26, 1.92, 1.63, 7.55, repro,
2007-08-02,3.76, 2.87, -0.94, 1.88, 1.62, 7.34, repro,
2007-08-03,2.25, 1.37, 5.74, 1.86, 1.62, 7.28, repro,
2007-08-04,3.41, 1.54, -5.27, 1.86, 1.62, 7.31, repro,
2007-08-05,0.41, 0.37, -4.05, 1.92, 1.66, 7.57, repro,
2007-08-06,3.20, -0.14, -3.24, 1.96, 1.85, 8.10, repro,
2007-08-07,1.40, 3.09, 3.20, 1.90, 1.69, 7.56, repro,
2007-08-08,3.00, 3.01, 2.73, 1.85, 1.61, 7.21, repro,
2007-08-09,1.47, -0.31, 9.43, 1.88, 1.65, 7.49, repro,
2007-08-10,2.56, 3.74, 6.54, 1.86, 1.63, 7.35, repro,
2007-08-11,2.20, 3.03, -4.66, 1.85, 1.63, 7.33, repro,
2007-08-12,3.05, 2.26, -2.28, 1.83, 1.60, 7.17, repro,
2007-08-13,2.61, 3.12, 0.26, 1.85, 1.61, 7.25, repro,
2007-08-14,1.11, 2.54, 11.50, 2.04, 1.83, 8.35, repro,
2007-08-15,1.90, 3.34, 4.13, 1.98, 1.72, 7.78, repro,
2007-08-16,1.32, 2.73, 11.70, 1.95, 1.67, 7.69, repro,
2007-08-17,3.03, 2.17, 1.25, 1.94, 1.67, 7.65, repro,
2007-08-18,2.25, 4.10, -4.48, 1.95, 1.71, 7.86, repro,
2007-08-19,3.18, 2.90, 11.17, 1.95, 1.73, 7.93, repro,
2007-08-20,2.51, 3.41, 1.44, 1.99, 1.78, 7.92, repro,
2007-08-21,2.46, 2.82, 1.91, 1.96, 1.68, 7.71, repro,
2007-08-22,3.94, 3.37, -2.60, 1.92, 1.67, 7.63, repro,
2007-08-23,2.54, 3.59, 11.14, 1.90, 1.63, 7.46, repro,
2007-08-24,3.16, 3.36, 3.76, 2.01, 1.73, 7.88, repro,
2007-08-25,2.79, 4.20, 0.71, 1.94, 1.71, 7.64, repro,
2007-08-26,3.58, 5.23, 10.02, 1.97, 1.76, 7.81, repro,
2007-08-27,4.06, 2.12, -4.58, 1.97, 1.76, 7.80, repro,
2007-08-28,2.05, 2.61, 9.05, 1.94, 1.71, 7.55, repro,
2007-08-29,4.09, 1.80, -4.24, 1.97, 1.73, 7.71, repro,
2007-08-30,4.04, 3.27, -7.47, 2.00, 1.79, 7.87, repro,
2007-08-31,2.40, 2.93, 0.02, 1.96, 1.75, 7.73, repro,
2007-09-01,6.05, 4.10, -5.49, 1.95, 1.79, 7.72, repro,
2007-09-02,6.15, 3.21, -5.12, 1.99, 1.79, 7.78, repro,
2007-09-03,3.39, 2.86, -4.06, 1.96, 1.73, 7.70, repro,
2007-09-04,4.74, 0.18, 7.49, 1.96, 1.72, 7.70, repro,
2007-09-05,0.72, 0.66, -4.23, 1.98, 1.80, 7.94, repro,
2007-09-06,3.18, 0.13, 1.92, 1.98, 1.75, 7.80, repro,
2007-09-07,4.08, 4.85, -17.71, 1.93, 1.73, 7.60, repro,
2007-09-08,3.21, 0.95, -4.23, 1.99, 1.82, 7.99, repro,
2007-09-09,4.45, 2.15, 3.69, 2.03, 1.81, 7.94, repro,
2007-09-10,4.15, 2.04, 2.96, 2.04, 1.78, 8.11, repro,
2007-09-11,2.78, 2.12, -4.05, 1.98, 1.76, 7.77, repro,
2007-09-12,4.93, 2.19, -9.27, 1.97, 1.74, 7.66, repro,
2007-09-13,3.83, 2.43, 6.01, 2.12, 1.77, 8.08, repro,
2007-09-14,4.01, 2.74, -9.28, 2.02, 1.74, 7.83, repro,
2007-09-15,5.98, -1.60, 9.45, 2.09, 1.76, 8.11, repro,
2007-09-16,1.52, 0.93, 5.09, 2.13, 1.79, 8.31, repro,
2007-09-17,3.49, 1.34, 2.22, 2.01, 1.80, 7.88, repro,
2007-09-18,3.25, 1.36, -4.62, 1.98, 1.75, 7.73, repro,
2007-09-19,3.54, 1.60, 0.18, 1.88, 1.63, 7.35, repro,
2007-09-20,1.89, 2.67, 8.21, 1.88, 1.63, 7.34, repro,
2007-09-21,0.96, -0.19, 11.33, 1.96, 1.70, 7.77, repro,
2007-09-22,1.36, 0.91, 14.86, 1.93, 1.67, 7.65, repro,
2007-09-23,2.86, 1.09, 2.22, 1.95, 1.72, 7.83, repro,
2007-09-24,2.50, 1.39, 2.78, 1.99, 1.69, 7.84, repro,
2007-09-25,3.65, 1.19, -0.84, 1.94, 1.67, 7.60, repro,
2007-09-26,3.68, 1.37, 2.58, 1.96, 1.64, 7.66, repro,
2007-09-27,2.94, 1.10, 1.96, 1.93, 1.67, 7.60, repro,
2007-09-28,3.03, 1.30, 1.22, 1.95, 1.72, 7.72, repro,
2007-09-29,2.86, 0.46, -0.09, 1.91, 1.72, 7.72, repro,
2007-09-30,3.06, 0.46, 0.45, 1.96, 1.74, 7.91, repro,
2007-10-01,2.49, 1.54, 2.02, 1.92, 1.74, 7.84, repro,
2007-10-02,1.72, 0.92, 8.21, 1.96, 1.79, 7.98, repro,
2007-10-03,4.61, 2.48, 7.07, 1.98, 1.72, 7.84, repro,
2007-10-04,5.63, 1.54, 15.47, 1.94, 1.72, 7.76, repro,
2007-10-05,2.07, 1.99, 8.62, 1.94, 1.78, 8.01, repro,
2007-10-06,3.04, -0.05, 8.91, 1.93, 1.73, 7.83, repro,
2007-10-07,2.69, 1.68, 1.08, 1.94, 1.74, 7.92, repro,
2007-10-08,3.03, 1.86, 3.23, 2.11, 1.83, 8.83, repro,
2007-10-09,2.86, 1.68, 0.61, 2.05, 1.87, 8.31, repro,
2007-10-10,2.66, 1.37, -2.79, 2.02, 1.75, 8.19, repro,
2007-10-11,2.24, 0.48, 2.59, 1.89, 1.73, 7.75, repro,
2007-10-12,3.92, 2.32, 7.04, 1.87, 1.67, 7.53, repro,
2007-10-13,3.56, 0.93, 12.54, 1.87, 1.68, 7.57, repro,
2007-10-14,3.94, 1.78, 1.83, 1.87, 1.66, 7.49, repro,
2007-10-15,3.72, 0.09, 6.10, 1.87, 1.67, 7.52, repro,
2007-10-16,2.12, 0.22, 10.53, 1.87, 1.66, 7.50, repro,
2007-10-17,2.10, -1.66, 20.30, 1.88, 1.68, 7.59, repro,
2007-10-18,4.03, 2.38, 5.30, 1.86, 1.67, 7.50, repro,
2007-10-19,3.74, 2.29, 5.06, 1.87, 1.68, 7.51, repro,
2007-10-20,3.46, 3.24, 6.87, 1.89, 1.70, 7.57, repro,
2007-10-21,3.75, 1.92, 2.15, 1.87, 1.67, 7.53, repro,
2007-10-22,3.37, 0.62, 2.93, 1.89, 1.66, 7.44, repro,
2007-10-23,2.43, 1.73, -1.87, 1.89, 1.73, 7.71, repro,
2007-10-24,2.60, 2.29, -3.86, 1.93, 1.78, 7.89, repro,
2007-10-25,3.20, 2.91, 0.85, 1.87, 1.68, 7.56, repro,
2007-10-26,2.97, 2.93, -2.19, 1.89, 1.70, 7.51, repro,
2007-10-27,3.49, 1.90, 0.35, 1.88, 1.67, 7.50, repro,
2007-10-28,2.47, 0.99, -1.59, 1.87, 1.66, 7.47, repro,
2007-10-29,2.26, 1.49, 3.33, 1.87, 1.68, 7.58, repro,
2007-10-30,2.53, 3.87, -2.86, 1.88, 1.68, 7.59, repro,
2007-10-31,2.77, 2.15, 0.07, 1.88, 1.67, 7.57, repro,
2007-11-01,2.62, 2.24, 0.98, 1.83, 1.63, 7.26, repro,
2007-11-02,2.56, 1.68, 0.27, 1.84, 1.63, 7.28, repro,
2007-11-03,1.82, 2.00, -2.52, 1.84, 1.63, 7.30, repro,
2007-11-04,2.71, 2.05, 1.17, 1.85, 1.64, 7.37, repro,
2007-11-05,2.70, 3.23, -6.20, 1.84, 1.64, 7.38, repro,
2007-11-06,1.93, 2.22, -3.68, 1.91, 1.75, 7.61, repro,
2007-11-07,3.16, 0.98, 0.52, 1.85, 1.63, 7.33, repro,
2007-11-08,2.49, 1.31, -4.12, 1.86, 1.66, 7.44, repro,
2007-11-09,2.79, 1.92, -8.51, 1.86, 1.68, 7.52, repro,
2007-11-10,2.82, 1.52, 3.02, 1.85, 1.64, 7.40, repro,
2007-11-11,3.26, 2.15, -1.13, 1.84, 1.64, 7.35, repro,
2007-11-12,3.93, 1.45, 1.79, 1.84, 1.63, 7.34, repro,
2007-11-13,3.50, 1.81, -1.41, 1.84, 1.62, 7.26, repro,
2007-11-14,3.19, 1.48, -3.67, 1.87, 1.66, 7.45, repro,
2007-11-15,3.91, 3.07, -3.58, 1.87, 1.67, 7.50, repro,
2007-11-16,3.50, 2.00, -8.10, 1.84, 1.64, 7.36, repro,
2007-11-17,3.03, 2.37, -7.71, 1.84, 1.64, 7.37, repro,
2007-11-18,3.56, 1.62, -4.73, 1.83, 1.63, 7.29, repro,
2007-11-19,3.73, 0.45, 1.37, 1.85, 1.64, 7.39, repro,
2007-11-20,4.91, 1.33, 0.33, 1.92, 1.73, 7.63, repro,
2007-11-21,3.31, 2.79, -4.17, 1.89, 1.74, 7.60, repro,
2007-11-22,3.76, 2.81, -10.96, 1.88, 1.69, 7.47, repro,
2007-11-23,4.39, 1.11, -6.07, 1.93, 1.80, 7.66, repro,
2007-11-24,3.44, 0.93, 5.57, 1.91, 1.74, 7.58, repro,
2007-11-25,3.43, 1.56, -0.13, 1.91, 1.74, 7.56, repro,
2007-11-26,3.39, 2.40, -0.95, 2.01, 1.85, 8.08, repro,
2007-11-27,3.33, 3.20, -1.63, 1.91, 1.75, 7.62, repro,
2007-11-28,3.47, 2.13, -11.11, 1.98, 1.77, 7.82, repro,
2007-11-29,4.22, 2.08, -8.20, 1.94, 1.71, 7.70, repro,
2007-11-30,2.76, 1.56, -1.39, 1.97, 1.79, 7.84, repro,
2007-12-01,0.80, 2.89, 7.64, 1.95, 1.78, 7.90, repro,
2007-12-02,4.37, 2.40, -8.55, 1.91, 1.76, 7.66, repro,
2007-12-03,4.26, 1.79, -13.37, 2.20, 2.05, 9.00, repro,
2007-12-04,5.33, 1.81, -11.69, 2.16, 2.05, 8.69, repro,
2007-12-05,6.14, 1.47, -8.31, 2.20, 2.09, 8.86, repro,
2007-12-06,3.67, 3.49, 1.19, 2.18, 2.01, 8.76, repro,
2007-12-07,2.74, 1.06, -9.26, 1.96, 1.84, 7.94, repro,
2007-12-08,3.48, 2.87, -3.07, 1.91, 1.73, 7.70, repro,
2007-12-09,4.60, 1.93, -7.75, 2.27, 2.19, 9.11, repro,
2007-12-10,5.08, 1.70, -8.17, 1.96, 1.81, 7.75, repro,
2007-12-11,5.23, 1.56, -10.51, 1.90, 1.74, 7.58, repro,
2007-12-12,5.13, 1.87, -13.70, 2.05, 1.79, 8.19, repro,
2007-12-13,4.50, 1.69, -12.20, 1.93, 1.70, 7.69, repro,
2007-12-14,3.60, 1.46, -6.61, 1.90, 1.66, 7.59, repro,
2007-12-15,4.37, 2.49, -1.21, 1.91, 1.67, 7.67, repro,
2007-12-16,4.92, 1.78, -6.88, 1.88, 1.66, 7.51, repro,
2007-12-17,4.42, 1.65, -4.77, 1.94, 1.71, 7.67, repro,
2007-12-18,4.17, 1.74, -2.50, 1.91, 1.68, 7.61, repro,
2007-12-19,4.22, 1.22, -1.28, 2.01, 1.76, 7.99, repro,
2007-12-20,4.54, 1.59, -0.28, 1.91, 1.68, 7.60, repro,
2007-12-21,4.28, 1.91, -5.43, 2.04, 1.80, 8.02, repro,
2007-12-22,6.19, 1.28, -12.57, 2.01, 1.76, 8.03, repro,
2007-12-23,3.93, 2.09, -8.38, 1.97, 1.74, 7.78, repro,
2007-12-24,4.04, 2.86, -2.64, 1.93, 1.69, 7.64, repro,
2007-12-25,2.81, 2.00, -0.66, 1.92, 1.69, 7.65, repro,
2007-12-26,3.76, 1.99, -1.14, 1.93, 1.67, 7.61, repro,
2007-12-27,3.49, 2.53, 0.99, 1.91, 1.67, 7.55, repro,
2007-12-28,3.29, 2.38, -3.20, 1.96, 1.71, 7.72, repro,
2007-12-29,3.10, 2.00, -0.08, 1.94, 1.69, 7.66, repro,
2007-12-30,3.96, 1.87, -4.41, 1.96, 1.73, 7.78, repro,
2007-12-31,4.47, 3.01, -6.67, 1.88, 1.62, 7.43, repro,
2008-01-01,3.97, 1.51, -12.04, 1.89, 1.65, 7.52, repro,
2008-01-02,4.40, 2.42, -15.03, 1.89, 1.63, 7.44, repro,
2008-01-03,3.29, 1.69, -6.73, 1.93, 1.69, 7.63, repro,
2008-01-04,3.91, 2.00, -8.72, 1.87, 1.63, 7.46, repro,
2008-01-05,4.43, 3.12, 0.39, 1.85, 1.61, 7.39, repro,
2008-01-06,7.29, 1.55, -17.23, 1.90, 1.64, 7.51, repro,
2008-01-07,3.54, 2.94, 3.57, 1.86, 1.62, 7.41, repro,
2008-01-08,3.68, 2.49, -9.51, 1.93, 1.65, 7.71, repro,
2008-01-09,3.96, 1.87, -6.09, 1.93, 1.66, 7.73, repro,
2008-01-10,4.72, 1.60, -4.73, 1.86, 1.65, 7.47, repro,
2008-01-11,4.47, 1.55, -2.28, 1.85, 1.62, 7.39, repro,
2008-01-12,3.65, 2.46, -2.27, 1.85, 1.63, 7.46, repro,
2008-01-13,2.10, 2.81, -10.67, 1.86, 1.65, 7.43, repro,
2008-01-14,5.35, 2.92, -7.83, 1.85, 1.65, 7.43, repro,
2008-01-15,3.70, 1.99, -5.69, 1.85, 1.65, 7.45, repro,
2008-01-16,4.43, 1.85, -6.07, 1.89, 1.66, 7.60, repro,
2008-01-17,3.65, 2.50, -7.45, 1.89, 1.66, 7.62, repro,
2008-01-18,3.87, 2.59, -8.42, 1.85, 1.68, 7.46, repro,
2008-01-19,3.13, 2.96, -14.20, 1.86, 1.65, 7.43, repro,
2008-01-20,3.42, 2.34, -8.08, 1.85, 1.65, 7.41, repro,
2008-01-21,2.11, 1.50, -4.79, 1.85, 1.65, 7.43, repro,
2008-01-22,3.36, 0.97, -9.52, 1.85, 1.65, 7.39, repro,
2008-01-23,3.83, 2.30, -10.27, 1.82, 1.64, 7.26, repro,
2008-01-24,3.84, 2.67, -5.77, 1.85, 1.66, 7.38, repro,
2008-01-25,3.39, 1.57, -13.23, 1.85, 1.66, 7.42, repro,
2008-01-26,4.22, 1.94, -11.56, 1.86, 1.66, 7.45, repro,
2008-01-27,4.51, 1.55, -5.49, 1.86, 1.66, 7.46, repro,
2008-01-28,3.70, 2.06, -9.59, 1.87, 1.68, 7.47, repro,
2008-01-29,3.72, 3.31, -6.06, 1.92, 1.76, 7.63, repro,
2008-01-30,2.66, 1.69, -6.97, 1.94, 1.73, 7.67, repro,
2008-01-31,3.76, 2.43, -10.83, 1.85, 1.65, 7.42, repro,
2008-02-01,4.16, 2.21, -9.93, 1.85, 1.64, 7.40, repro,
2008-02-02,4.15, 2.10, -6.48, 1.83, 1.64, 7.33, repro,
2008-02-03,1.57, 0.64, -10.24, 1.84, 1.65, 7.36, repro,
2008-02-04,2.64, 2.03, -3.22, 1.88, 1.71, 7.58, repro,
2008-02-05,4.09, 1.77, -7.75, 1.89, 1.71, 7.52, repro,
2008-02-06,3.99, 2.75, -7.62, 1.89, 1.70, 7.50, repro,
2008-02-07,4.11, 2.11, -4.55, 1.87, 1.69, 7.62, repro,
2008-02-08,4.00, 2.16, -3.66, 1.83, 1.64, 7.33, repro,
2008-02-09,3.18, 2.48, -5.20, 1.83, 1.64, 7.35, repro,
2008-02-10,3.77, 2.65, -6.97, 1.84, 1.64, 7.36, repro,
2008-02-11,3.64, 2.05, -5.36, 1.85, 1.64, 7.41, repro,
2008-02-12,3.73, 2.60, -4.99, 1.85, 1.63, 7.35, repro,
2008-02-13,3.30, 1.72, -1.00, 1.84, 1.62, 7.29, repro,
2008-02-14,4.15, 2.91, -2.48, 1.85, 1.63, 7.35, repro,
2008-02-15,4.70, 3.11, -8.34, 1.88, 1.69, 7.47, repro,
2008-02-16,2.97, 2.27, -4.94, 1.85, 1.64, 7.36, repro,
2008-02-17,2.38, 2.05, -5.90, 1.85, 1.64, 7.36, repro,
2008-02-18,3.33, 1.74, -0.67, 1.85, 1.63, 7.36, repro,
2008-02-19,2.87, 1.76, -2.10, 1.85, 1.63, 7.35, repro,
2008-02-20,2.86, -0.33, -6.96, 1.90, 1.70, 7.58, repro,
2008-02-21,3.08, 2.50, -0.12, 1.84, 1.64, 7.34, repro,
2008-02-22,1.96, 2.16, -9.55, 1.85, 1.65, 7.38, repro,
2008-02-23,4.41, 2.14, -4.20, 1.89, 1.69, 7.61, repro,
2008-02-24,3.92, 0.74, 0.25, 1.96, 1.79, 7.87, repro,
2008-02-25,4.05, 0.53, -0.65, 1.85, 1.63, 7.39, repro,
2008-02-26,4.48, 1.74, -13.17, 1.84, 1.62, 7.32, repro,
2008-02-27,3.06, 1.53, -11.77, 1.91, 1.70, 7.65, repro,
2008-02-28,4.06, 0.75, -7.06, 1.90, 1.72, 7.73, repro,
2008-02-29,3.96, 1.30, -4.54, 1.88, 1.66, 7.55, repro,
2008-03-01,4.19, 0.82, -8.93, 1.88, 1.67, 7.56, repro,
2008-03-02,4.74, 1.81, -5.22, 1.89, 1.71, 7.71, repro,
2008-03-03,4.07, 1.60, -8.10, 1.85, 1.62, 7.39, repro,
2008-03-04,3.75, 1.69, -4.77, 1.85, 1.62, 7.33, repro,
2008-03-05,3.52, 1.19, -3.80, 1.93, 1.73, 7.69, repro,
2008-03-06,4.58, 0.79, -5.37, 1.87, 1.65, 7.55, repro,
2008-03-07,3.96, 1.49, -7.86, 1.84, 1.61, 7.36, repro,
2008-03-08,3.38, 1.59, -2.81, 1.88, 1.66, 7.57, repro,
2008-03-09,2.20, 0.28, 1.87, 1.88, 1.66, 7.56, repro,
2008-03-10,4.41, 1.06, -7.26, 1.85, 1.61, 7.31, repro,
2008-03-11,3.80, 1.74, -0.89, 1.86, 1.61, 7.40, repro,
2008-03-12,4.71, 0.97, -1.67, 1.87, 1.64, 7.45, repro,
2008-03-13,5.24, 1.89, 3.15, 1.88, 1.70, 7.76, repro,
2008-03-14,1.93, -0.94, 10.19, 1.87, 1.67, 7.55, repro,
2008-03-15,4.26, 0.52, 0.07, 1.89, 1.66, 7.57, repro,
2008-03-16,4.26, 0.99, 1.25, 1.93, 1.73, 7.66, repro,
2008-03-17,4.00, 1.12, -1.68, 1.95, 1.79, 7.93, repro,
2008-03-18,5.14, 1.12, -3.56, 1.87, 1.68, 7.49, repro,
2008-03-19,4.31, 1.64, -5.72, 1.88, 1.66, 7.45, repro,
2008-03-20,4.29, 1.26, -2.63, 1.89, 1.65, 7.49, repro,
2008-03-21,4.56, 0.58, -6.50, 1.91, 1.65, 7.57, repro,
2008-03-22,3.45, 0.80, -1.73, 1.93, 1.69, 7.69, repro,
2008-03-23,4.62, 1.64, -8.13, 1.90, 1.68, 7.56, repro,
2008-03-24,5.48, 2.20, -5.78, 1.87, 1.64, 7.38, repro,
2008-03-25,5.23, 0.84, -0.02, 1.92, 1.72, 7.53, repro,
2008-03-26,4.22, 1.03, 0.93, 1.92, 1.70, 7.50, repro,
2008-03-27,3.86, -0.26, -2.89, 1.93, 1.69, 7.52, repro,
2008-03-28,2.99, 0.32, -1.15, 1.89, 1.62, 7.39, repro,
2008-03-29,5.47, 0.96, 0.92, 1.87, 1.61, 7.36, repro,
2008-03-30,4.32, 0.87, -3.71, 1.88, 1.62, 7.37, repro,
2008-03-31,5.05, 1.28, -3.60, 1.88, 1.61, 7.37, repro,
2008-04-01,4.64, 0.61, -2.05, 1.88, 1.61, 7.37, repro,
2008-04-02,4.52, 0.19, 0.01, 1.93, 1.62, 7.54, repro,
2008-04-03,5.49, 0.29, 0.46, 1.89, 1.64, 7.42, repro,
2008-04-04,4.11, 0.77, -3.88, 1.87, 1.61, 7.33, repro,
2008-04-05,4.81, 1.94, -1.16, 1.87, 1.61, 7.35, repro,
2008-04-06,4.91, 1.28, -2.63, 1.88, 1.60, 7.33, repro,
2008-04-07,3.71, -0.69, -4.47, 1.89, 1.61, 7.38, repro,
2008-04-08,3.97, 1.00, 6.31, 1.89, 1.62, 7.40, repro,
2008-04-09,4.93, 1.16, 10.42, 1.88, 1.62, 7.47, repro,
2008-04-10,4.72, 1.02, 1.47, 1.87, 1.61, 7.38, repro,
2008-04-11,5.14, 0.78, -6.07, 1.87, 1.59, 7.29, repro,
2008-04-12,5.05, 1.41, -10.23, 1.88, 1.60, 7.33, repro,
2008-04-13,4.85, 1.47, -6.25, 1.88, 1.60, 7.33, repro,
2008-04-14,4.25, 0.79, 1.49, 1.87, 1.61, 7.36, repro,
2008-04-15,4.56, 0.28, 6.00, 1.90, 1.67, 7.58, repro,
2008-04-16,4.22, 0.55, 2.79, 1.90, 1.65, 7.51, repro,
2008-04-17,5.54, 1.69, -7.68, 1.88, 1.59, 7.35, repro,
2008-04-18,4.82, 1.22, -6.17, 1.88, 1.59, 7.33, repro,
2008-04-19,3.63, 2.02, 1.71, 1.89, 1.61, 7.39, repro,
2008-04-20,4.14, 1.70, 3.23, 1.88, 1.61, 7.40, repro,
2008-04-21,2.59, 1.84, 1.11, 1.89, 1.59, 7.36, repro,
2008-04-22,2.90, 1.21, -3.54, 1.89, 1.59, 7.36, repro,
2008-04-23,4.87, 0.53, -0.22, 1.96, 1.67, 7.71, repro,
2008-04-24,5.04, 3.01, 2.12, 1.92, 1.64, 7.51, repro,
2008-04-25,5.11, -0.02, -1.08, 1.90, 1.62, 7.44, repro,
2008-04-26,5.45, 1.04, -2.89, 2.00, 1.69, 7.79, repro,
2008-04-27,4.39, 0.31, -5.78, 1.98, 1.62, 7.68, repro,
2008-04-28,3.85, -0.53, -8.37, 1.98, 1.62, 7.66, repro,
2008-04-29,4.67, 0.33, 2.18, 2.06, 1.70, 7.86, repro,
2008-04-30,4.25, -0.60, 2.16, 1.95, 1.65, 7.67, repro,
2008-05-01,5.28, -0.56, -1.32, 1.94, 1.64, 7.58, repro,
2008-05-02,4.20, -0.26, -1.79, 1.98, 1.67, 7.68, repro,
2008-05-03,4.28, -1.22, -3.10, 1.94, 1.63, 7.53, repro,
2008-05-04,4.50, -1.51, -2.19, 1.91, 1.62, 7.45, repro,
2008-05-05,4.88, -1.39, -2.09, 1.93, 1.64, 7.56, repro,
2008-05-06,4.56, 0.45, -2.31, 1.95, 1.66, 7.71, repro,
2008-05-07,5.41, 0.24, 1.05, 1.94, 1.64, 7.52, repro,
2008-05-08,5.40, 1.13, -3.51, 2.00, 1.73, 7.67, repro,
2008-05-09,4.63, -0.57, -0.22, 1.94, 1.63, 7.51, repro,
2008-05-10,4.88, -0.45, 0.98, 1.94, 1.63, 7.59, repro,
2008-05-11,4.46, -1.08, 5.63, 1.93, 1.62, 7.43, repro,
2008-05-12,4.04, -1.94, 7.66, 1.94, 1.62, 7.50, repro,
2008-05-13,4.65, -0.19, -0.33, 1.92, 1.59, 7.32, repro,
2008-05-14,5.29, -0.19, -5.44, 1.91, 1.58, 7.33, repro,
2008-05-15,4.73, -0.89, -4.17, 1.91, 1.58, 7.32, repro,
2008-05-16,5.07, 0.13, -4.71, 1.91, 1.59, 7.36, repro,
2008-05-17,5.69, -1.27, -0.44, 1.94, 1.62, 7.41, repro,
2008-05-18,4.88, -1.24, -1.62, 1.96, 1.62, 7.52, repro,
2008-05-19,3.65, -1.95, 2.73, 1.91, 1.60, 7.40, repro,
2008-05-20,4.24, -1.99, 2.45, 1.91, 1.59, 7.40, repro,
2008-05-21,6.32, -0.09, 3.05, 1.89, 1.58, 7.30, repro,
2008-05-22,5.19, -0.54, 2.44, 1.91, 1.62, 7.44, repro,
2008-05-23,3.72, 1.25, 7.11, 1.94, 1.67, 7.57, repro,
2008-05-24,3.36, -0.76, 3.95, 1.93, 1.64, 7.53, repro,
2008-05-25,3.59, -1.05, 5.03, 1.94, 1.64, 7.56, repro,
2008-05-26,2.56, -0.40, -0.31, 1.96, 1.68, 7.64, repro,
2008-05-27,4.81, 0.63, -0.96, 1.93, 1.63, 7.53, repro,
2008-05-28,3.36, 0.58, 1.18, 1.93, 1.64, 7.56, repro,
2008-05-29,3.97, -2.40, 4.81, 1.97, 1.69, 7.67, repro,
2008-05-30,5.33, 1.10, 0.48, 1.92, 1.63, 7.49, repro,
2008-05-31,3.83, 1.53, 2.68, 1.93, 1.65, 7.57, repro,
2008-06-01,5.50, -1.45, -1.99, 1.93, 1.64, 7.53, repro,
2008-06-02,5.43, -2.01, 6.16, 1.93, 1.65, 7.53, repro,
2008-06-03,4.76, 0.17, -2.03, 1.96, 1.65, 7.61, repro,
2008-06-04,2.94, -1.19, 3.64, 1.90, 1.59, 7.32, repro,
2008-06-05,4.63, -0.28, 4.60, 1.92, 1.64, 7.48, repro,
2008-06-06,5.11, -0.89, 4.16, 1.93, 1.63, 7.51, repro,
2008-06-07,4.79, -1.01, 9.69, 1.96, 1.68, 7.59, repro,
2008-06-08,6.33, -0.49, -1.25, 1.93, 1.64, 7.44, repro,
2008-06-09,4.65, -0.65, 6.30, 1.93, 1.62, 7.40, repro,
2008-06-10,4.88, -1.19, 2.53, 1.90, 1.58, 7.27, repro,
2008-06-11,5.38, -0.17, 3.25, 1.90, 1.59, 7.30, repro,
2008-06-12,4.97, -0.32, 1.97, 1.92, 1.64, 7.45, repro,
2008-06-13,5.03, 0.20, 1.94, 1.91, 1.61, 7.37, repro,
2008-06-14,5.28, 1.23, -0.74, 1.94, 1.62, 7.43, repro,
2008-06-15,4.34, 1.13, 2.57, 1.98, 1.69, 7.56, repro,
2008-06-16,5.19, -1.07, -2.27, 1.91, 1.59, 7.31, repro,
2008-06-17,6.06, -1.25, 3.98, 1.95, 1.68, 7.44, repro,
2008-06-18,2.96, -0.47, 3.42, 1.92, 1.63, 7.40, repro,
2008-06-19,5.11, -0.16, -2.86, 1.92, 1.66, 7.39, repro,
2008-06-20,4.35, -0.69, 3.11, 1.90, 1.60, 7.29, repro,
2008-06-21,5.48, 0.51, -6.02, 1.96, 1.74, 7.52, repro,
2008-06-22,3.94, -0.52, 0.67, 1.92, 1.62, 7.38, repro,
2008-06-23,5.28, -2.14, -0.11, 1.93, 1.66, 7.49, repro,
2008-06-24,4.78, -0.65, 1.72, 1.94, 1.68, 7.42, repro,
2008-06-25,5.28, -1.08, 4.62, 1.93, 1.66, 7.34, repro,
2008-06-26,5.19, 0.64, -1.88, 1.96, 1.71, 7.51, repro,
2008-06-27,6.36, -1.34, 3.28, 1.90, 1.61, 7.34, repro,
2008-06-28,4.44, -1.64, 2.91, 2.01, 1.70, 7.69, repro,
2008-06-29,4.37, -0.70, -2.35, 1.93, 1.68, 7.41, repro,
2008-06-30,3.60, -0.79, 8.29, 1.92, 1.62, 7.38, repro,
2008-07-01,5.68, 0.12, 4.29, 1.94, 1.67, 7.40, repro,
2008-07-02,4.92, 0.17, 5.38, 1.91, 1.62, 7.34, repro,
2008-07-03,6.32, -0.47, 1.09, 1.91, 1.61, 7.33, repro,
2008-07-04,5.98, -0.41, -1.82, 1.90, 1.59, 7.27, repro,
2008-07-05,5.23, 0.29, 5.52, 1.90, 1.61, 7.33, repro,
2008-07-06,4.19, 0.20, 8.02, 1.93, 1.62, 7.44, repro,
2008-07-07,4.77, -1.17, 3.82, 1.95, 1.68, 7.46, repro,
2008-07-08,4.45, 0.15, 0.54, 1.91, 1.63, 7.34, repro,
2008-07-09,5.97, -0.48, -5.09, 1.95, 1.68, 7.43, repro,
2008-07-10,4.62, 0.67, 8.64, 2.00, 1.72, 7.62, repro,
2008-07-11,6.07, -1.63, -1.95, 2.04, 1.74, 7.73, repro,
2008-07-12,7.62, -0.81, 3.32, 1.98, 1.69, 7.72, repro,
2008-07-13,7.00, -0.13, 2.24, 1.97, 1.69, 7.51, repro,
2008-07-14,7.09, -2.19, 6.01, 1.94, 1.68, 7.42, repro,
2008-07-15,5.65, -0.57, -0.43, 1.96, 1.72, 7.72, repro,
2008-07-16,5.21, -0.89, -4.07, 1.92, 1.60, 7.34, repro,
2008-07-17,6.86, -1.53, -5.59, 1.91, 1.59, 7.32, repro,
2008-07-18,4.57, 0.37, 3.70, 1.99, 1.64, 7.67, repro,
2008-07-19,5.71, 0.51, -2.67, 2.01, 1.63, 7.76, repro,
2008-07-20,7.45, 0.96, -2.23, 1.99, 1.63, 7.63, repro,
2008-07-21,4.44, 0.88, -5.08, 1.94, 1.67, 7.45, repro,
2008-07-22,4.12, -0.55, 3.71, 1.91, 1.58, 7.30, repro,
2008-07-23,4.56, 1.33, 5.77, 1.97, 1.60, 7.52, repro,
2008-07-24,5.08, -0.09, 1.73, 1.91, 1.62, 7.43, repro,
2008-07-25,5.91, -0.27, 4.43, 1.89, 1.59, 7.30, repro,
2008-07-26,4.91, 0.40, -2.02, 1.92, 1.63, 7.43, repro,